Butler, GA

7:14 PM EST on December 15, 2019 (GMT -0500)
Butler

Weather History for K6A1 - October, 2019

Change the Weather History Date:

Sunday, October 6, 2019

  Actual Average (WUND) Record (WUND)
Temperature  
Mean Temperature 76 °F -  
Max Temperature 85 °F - - (-1)
Min Temperature 67 °F - - (-1)
Cooling Degree Days 11    
Growing Degree Days 26 (Base 50)    
Moisture  
Dew Point 62 °F    
Average Humidity 64    
Maximum Humidity 77    
Minimum Humidity 42    
Precipitation  
Precipitation 0.00 in - - ()
Sea Level Pressure  
Sea Level Pressure 30.16 in    
Wind  
Wind Speed 8 mph ()    
Max Wind Speed 12 mph    
Max Gust Speed 17 mph    
Visibility 10.0 miles    
Events      
Averages and records for this station are not official NWS values.
T = Trace of Precipitation, MM = Missing Value Source: Averaged Metar Reports

Daily Weather History Graph

Daily Weather History Graph

Search for Another Location

Airport or City:

Astronomy

Oct. 06, 2019 Rise Set
Actual Time 7:34 AM EDT 7:15 PM EDT
Civil Twilight 7:09 AM EDT 7:40 PM EDT
Nautical Twilight 6:41 AM EDT 8:08 PM EDT
Astronomical Twilight 6:12 AM EDT 8:37 PM EDT
Moon 3:29 PM EDT (10/6) 12:56 AM EDT (10/6)
Length of Visible Light 12h 30m
Length of Day
11h 41m
First Quarter, 59% of the Moon is Illuminated
Oct 6
First Quarter
Oct 13
Full
Oct 21
Last Quarter
Oct 27
New
Nov 4
First Quarter

Hourly Weather History & Observations

Time (EDT) Temp. Heat Index Dew Point Humidity Pressure Visibility Wind Dir Wind Speed Gust Speed Precip Events Conditions
12:15 AM 75.4 °F - 65.3 °F 71% 30.14 in 10.0 mi ESE 11.5 mph 17.3 mph N/A   Unknown
12:35 AM 75.2 °F - 65.3 °F 71% 30.14 in 10.0 mi ESE 11.5 mph 16.1 mph N/A   Unknown
12:55 AM 73.8 °F - 63.9 °F 71% 30.15 in 10.0 mi ENE 10.4 mph - N/A   Unknown
1:15 AM 73.6 °F - 63.7 °F 71% 30.15 in 10.0 mi ENE 6.9 mph - N/A   Unknown
1:35 AM 73.4 °F - 63.5 °F 71% 30.15 in 10.0 mi ENE 8.1 mph - N/A   Unknown
1:55 AM 73.0 °F - 63.5 °F 72% 30.15 in 10.0 mi ENE 8.1 mph - N/A   Unknown
2:15 AM 72.9 °F - 63.1 °F 71% 30.15 in 10.0 mi East 6.9 mph - N/A   Unknown
2:35 AM 72.5 °F - 62.8 °F 71% 30.15 in 10.0 mi East 8.1 mph - N/A   Unknown
2:55 AM 72.0 °F - 62.6 °F 72% 30.16 in 10.0 mi ENE 6.9 mph - N/A   Unknown
3:15 AM 71.6 °F - 62.1 °F 72% 30.16 in 10.0 mi ENE 6.9 mph - N/A   Unknown
3:35 AM 71.1 °F - 61.7 °F 72% 30.16 in 10.0 mi ENE 9.2 mph - N/A   Unknown
3:55 AM 70.7 °F - 61.7 °F 73% 30.16 in 10.0 mi ENE 8.1 mph - N/A   Unknown
4:15 AM 70.0 °F - 61.3 °F 74% 30.16 in 10.0 mi East 8.1 mph - N/A   Unknown
4:35 AM 69.8 °F - 61.2 °F 74% 30.16 in 10.0 mi ENE 5.8 mph - N/A   Unknown
4:55 AM 69.4 °F - 60.6 °F 73% 30.16 in 10.0 mi ENE 6.9 mph - N/A   Unknown
5:15 AM 69.3 °F - 60.3 °F 73% 30.16 in 10.0 mi ENE 10.4 mph - N/A   Unknown
5:35 AM 68.9 °F - 59.9 °F 73% 30.16 in 10.0 mi NE 5.8 mph - N/A   Unknown
5:55 AM 68.9 °F - 59.5 °F 72% 30.17 in 10.0 mi NE 8.1 mph 16.1 mph N/A   Unknown
6:15 AM 68.4 °F - 59.2 °F 72% 30.17 in 10.0 mi NE 10.4 mph - N/A   Unknown
6:55 AM 67.6 °F - 58.5 °F 72% 30.17 in 10.0 mi East 5.8 mph - N/A   Unknown
7:35 AM 67.3 °F - 58.3 °F 73% 30.18 in 10.0 mi ENE 6.9 mph 17.3 mph N/A   Unknown
7:55 AM 67.3 °F - 58.3 °F 73% 30.19 in 10.0 mi East 8.1 mph - N/A   Unknown
8:15 AM 67.3 °F - 58.6 °F 74% 30.19 in 10.0 mi ENE 9.2 mph - N/A   Unknown
8:35 AM 67.3 °F - 59.0 °F 75% 30.20 in 10.0 mi ENE 10.4 mph 16.1 mph N/A   Unknown
8:55 AM 67.1 °F - 59.5 °F 77% 30.20 in 10.0 mi ENE 9.2 mph - N/A   Unknown
9:15 AM 67.3 °F - 59.9 °F 77% 30.20 in 10.0 mi East 9.2 mph 16.1 mph N/A   Unknown
9:35 AM 68.0 °F - 60.1 °F 76% 30.20 in 10.0 mi East 9.2 mph - N/A   Unknown
9:55 AM 68.4 °F - 60.1 °F 75% 30.20 in 10.0 mi NE 8.1 mph - N/A   Unknown
10:15 AM 70.0 °F - 59.9 °F 70% 30.21 in 10.0 mi ENE 10.4 mph - N/A   Unknown
10:35 AM 72.9 °F - 59.9 °F 64% 30.21 in 10.0 mi ENE 8.1 mph - N/A   Unknown
10:55 AM 72.3 °F - 60.3 °F 66% 30.22 in 10.0 mi ENE 6.9 mph - N/A   Unknown
11:15 AM 73.6 °F - 60.4 °F 63% 30.22 in 10.0 mi East 6.9 mph - N/A   Unknown
11:35 AM 72.9 °F - 61.0 °F 66% 30.22 in 10.0 mi ENE 5.8 mph - N/A   Unknown
11:55 AM 74.5 °F - 61.5 °F 64% 30.22 in 10.0 mi ENE 9.2 mph - N/A   Unknown
12:15 PM 74.1 °F - 61.9 °F 65% 30.21 in 10.0 mi ENE 6.9 mph - N/A   Unknown
12:35 PM 76.8 °F - 62.6 °F 61% 30.21 in 10.0 mi East 9.2 mph - N/A   Unknown
12:55 PM 78.6 °F - 62.6 °F 58% 30.21 in 10.0 mi ESE 9.2 mph - N/A   Unknown
1:15 PM 78.6 °F - 62.8 °F 58% 30.20 in 10.0 mi East 8.1 mph - N/A   Unknown
1:35 PM 81.0 °F 82.1 °F 62.6 °F 53% 30.19 in 10.0 mi NNE 9.2 mph - N/A   Unknown
1:55 PM 80.1 °F 81.5 °F 63.0 °F 56% 30.18 in 10.0 mi East 6.9 mph - N/A   Unknown
2:15 PM 80.6 °F 81.8 °F 62.8 °F 54% 30.17 in 10.0 mi ENE 10.4 mph 16.1 mph N/A   Unknown
2:35 PM 82.4 °F 83.5 °F 63.0 °F 52% 30.16 in 10.0 mi ENE 9.2 mph - N/A   Unknown
2:55 PM 81.9 °F 82.9 °F 62.6 °F 52% 30.15 in 10.0 mi East 9.2 mph - N/A   Unknown
3:15 PM 82.2 °F 83.2 °F 62.6 °F 51% 30.14 in 10.0 mi ENE 8.1 mph - N/A   Unknown
3:35 PM 84.4 °F 85.0 °F 62.4 °F 47% 30.14 in 10.0 mi East 6.9 mph - N/A   Unknown
3:55 PM 84.0 °F 84.7 °F 62.4 °F 48% 30.13 in 10.0 mi East 9.2 mph - N/A   Unknown
4:15 PM 84.7 °F 85.2 °F 61.9 °F 46% 30.12 in 10.0 mi East 9.2 mph - N/A   Unknown
4:35 PM 84.9 °F 85.4 °F 61.9 °F 46% 30.12 in 10.0 mi East 8.1 mph - N/A   Unknown
4:55 PM 85.5 °F 85.9 °F 61.7 °F 45% 30.12 in 10.0 mi East 6.9 mph - N/A   Unknown
5:15 PM 83.3 °F 83.9 °F 61.9 °F 48% 30.11 in 10.0 mi East 5.8 mph - N/A   Unknown
5:35 PM 84.4 °F 84.6 °F 61.2 °F 45% 30.11 in 10.0 mi ENE 4.6 mph - N/A   Unknown
5:55 PM 85.3 °F 85.2 °F 60.3 °F 43% 30.10 in 10.0 mi East 6.9 mph - N/A   Unknown
6:15 PM 85.1 °F 84.8 °F 59.7 °F 42% 30.10 in 10.0 mi ENE 5.8 mph - N/A   Unknown
6:35 PM 84.0 °F 84.0 °F 59.7 °F 44% 30.10 in 10.0 mi East 8.1 mph - N/A   Unknown
6:55 PM 82.6 °F 82.8 °F 59.9 °F 46% 30.10 in 10.0 mi East 8.1 mph - N/A   Unknown
7:15 PM 81.5 °F 82.0 °F 60.1 °F 48% 30.10 in 10.0 mi East 6.9 mph - N/A   Unknown
7:35 PM 80.8 °F 81.4 °F 60.3 °F 49% 30.11 in 10.0 mi East 4.6 mph - N/A   Unknown
7:55 PM 80.6 °F 81.4 °F 60.3 °F 50% 30.11 in 10.0 mi East 3.5 mph - N/A   Unknown
8:15 PM 79.5 °F - 63.0 °F 57% 30.12 in 10.0 mi SSE 8.1 mph - N/A   Unknown
8:35 PM 78.6 °F - 64.4 °F 62% 30.13 in 10.0 mi SE 4.6 mph - N/A   Unknown
8:55 PM 77.7 °F - 64.4 °F 63% 30.13 in 10.0 mi SE 8.1 mph - N/A   Unknown
9:15 PM 77.0 °F - 64.8 °F 66% 30.13 in 10.0 mi SE 4.6 mph - N/A   Unknown
9:35 PM 77.0 °F - 64.9 °F 66% 30.14 in 10.0 mi SSE 5.8 mph - N/A   Unknown
9:55 PM 76.1 °F - 64.9 °F 68% 30.14 in 10.0 mi SSE 6.9 mph - N/A   Unknown
10:15 PM 75.6 °F - 65.3 °F 70% 30.15 in 10.0 mi SE 8.1 mph - N/A   Unknown
10:35 PM 75.0 °F - 65.3 °F 72% 30.15 in 10.0 mi SE 5.8 mph - N/A   Unknown
10:55 PM 74.5 °F - 64.9 °F 72% 30.15 in 10.0 mi ESE 4.6 mph - N/A   Unknown
11:15 PM 74.3 °F - 64.6 °F 72% 30.14 in 10.0 mi SE 5.8 mph - N/A   Unknown
11:35 PM 73.9 °F - 64.6 °F 72% 30.14 in 10.0 mi ESE 6.9 mph - N/A   Unknown
11:55 PM 73.8 °F - 64.8 °F 73% 30.14 in 10.0 mi ESE 8.1 mph - N/A   Unknown